{"data":{"norad_id":69266,"epoch":"2026-09-20T02:51:23.758272Z","epoch_age_seconds":61931,"freshness":"FRESH","line1":"1 69266U 26117AE  26263.11902498  .00028646  00000+0  85544-3 0  9993","line2":"2 69266  53.1561 155.1375 0000886  86.9468 273.1636 15.34409533 17612","mean_motion":15.34409533,"eccentricity":8.86e-5,"inclination_deg":53.1561,"raan_deg":155.1375,"arg_perigee_deg":86.9468,"mean_anomaly_deg":273.1636,"bstar":0.00085544,"rev_number":1761,"period_min":93.847175022732,"perigee_km":462.06881033392,"apogee_km":463.28100220371,"semimajor_km":6840.8119062688,"source":"CELESTRAK","updated_at":"2026-09-20T09:00:44.153422Z"}}